Location: Bas-Clignon
(44.2000°N, 6.6333°E)
Time: 02:26:57
(UTC+00:00)

ATLAS CENTAUR R/B - Pass Details

Date: 03 February 2023
Orbit: 450 x 653 km, 64.7° (Epoch: 19 March)

Event Time Altitude Azimuth Distance (km) Brightness Sun altitude
Rises 17:14:26 0° 238° (WSW) 2,979 6.9 -5.7°
Reaches altitude 10° 17:16:56 10° 247° (WSW) 2,061 6.1 -6.1°
Maximum altitude 17:21:15 35° 313° (NW) 1,031 3.0 -6.9°
Drops below altitude 10° 17:25:27 10° 20° (NNE) 1,998 3.8 -7.6°
Enters shadow 17:27:42 - 29° (NNE) 2,819 4.5 -8.0°
